Weather in Pribytkovsky

Russia / Lipetsk Oblast     52°25′06″N   39°49′53″E
temp.,
°C
wind,
m/s
gust,
m/s
humid.,
%
clouds,
%
prec.,
mm/h
press.,
hPa
HPBL,
m
24 september, fri
fri2400:00+7sw238839 0.0 101248
03:00+8ssw248618 0.0 1011155
06:00+8s368798 0.0 1010244
09:00+8s4983100 0.1 1010512
12:00+11s586095 0.1 10091328
15:00+12s5853100 0.1 10071309
18:00+11s495498 0.0 1007478
21:00+10s3860100 0.0 1007404
25 september, sat
sat2500:00+8s357184 0.0 1007114
03:00+7sse2374100 0.0 100769
06:00+9sse3674100 0.0 1007319
09:00+9sse2577100 0.0 1008333
12:00+10ssw2377100 0.0 1009435
15:00+12sw236985 0.0 1010770
18:00+11ssw2373100 0.0 101072
21:00+9sw238553 0.0 101180
26 september, sun
sun2600:00+8ssw369043 0.0 1010121
03:00+9sw268583 0.0 1009168
06:00+9sw3893100 0.7 1008339
09:00+9sw4894100 1.8 1007665
12:00+11wnw478587 0.2 1007696
15:00+13nw696978 1.9 10071370
18:00+9nw5980100 0.4 1008554
21:00+9nw51083100 0.7 10091007
27 september, mon
mon2700:00+9nw5991100 1.3 1009737
03:00+9n51093100 1.5 1011606
06:00+9n5119280 0.3 1013521
09:00+9n5109059 0.4 1015569
12:00+12n6865100 0.1 10171307
15:00+12nne6869100 0.3 1018951
18:00+10n4983100 0.0 1020688
21:00+9n4886100 0.1 1021594
28 september, tue
tue2800:00+9n4890100 0.0 1022452
03:00+9n4890100 0.0 1024459
06:00+9nne4791100 0.0 1025485
09:00+9ne4788100 0.1 1026516
12:00+9ne3585100 0.1 1028384
15:00+11ne5671100 0.2 1028682
18:00+10nne2571100 0.0 1029240
21:00+9nne3768100 0.0 1030234